CALSPHERE 1 1 00900U 64063C 12034.34553487 +.00000444 +00000-0 +48544-3 0 06073 2 00900 090.1452 342.3225 0025839 236.5083 123.3605 13.71053892351139 CALSPHERE 2 1 00902U 64063E 12034.92817949 +.00000075 +00000-0 +10000-3 0 06431 2 00902 090.1458 344.9191 0018771 344.2516 015.8046 13.52510554147366 LCS 1 1 01361U 65034C 12034.98473715 +.00000009 +00000-0 +10000-3 0 04070 2 01361 032.1438 035.5299 0008808 180.4705 179.5784 09.89281993690606 TEMPSAT 1 1 01512U 65065E 12034.74002329 +.00000059 +00000-0 +10000-3 0 06746 2 01512 089.7886 281.2909 0068300 220.9398 138.6601 13.33294206260756 CALSPHERE 4(A) 1 01520U 65065H 12034.72121429 .00000061 00000-0 10000-3 0 8381 2 01520 090.1638 099.6311 0071579 136.7030 223.9769 13.35420436262576 OPS 5712 (P/L 160) 1 02826U 67053A 12034.90629050 +.00001339 +00000-0 +44232-3 0 05372 2 02826 069.9317 114.9026 0010360 259.8536 100.1425 14.40124937305631 OPS 5712 (P/L 153) 1 02874U 67053H 12034.88070845 +.00000026 +00000-0 +57682-4 0 09925 2 02874 069.9679 193.6163 0008066 183.3150 176.7903 13.96011260274756 SURCAL 150B 1 02909U 67053J 12034.97095186 +.00001512 +00000-0 +41539-3 0 07392 2 02909 069.9532 261.6323 0001440 307.7661 052.3342 14.48890150312126 RIGIDSPHERE 2 (LCS 4) 1 05398U 71067E 12034.87031105 .00000434 00000-0 15306-3 0 3848 2 05398 087.6270 345.6552 0062883 257.6670 101.7483 14.31674830122126 OPS 8180 (RADCAT) 1 06212U 72076A 12034.70040240 +.00047480 +00000-0 +72278-3 0 05404 2 06212 098.5737 211.5376 0002152 262.3617 097.7361 15.54381238270310